Wind_Speed
73 72 73 73 72 76 77 74 70 63 58 56 54 54 53 53 53 53 52 51 50 50 49 48 47 48 48 47 47 49 49 49 47 47 46 42 43 45 46 50 49 46 46 45 45 44 43 45 44 43 44 43 42 42 41 40 41 40 38 36 34 33 32 32 32 30 27 26 24 23 23 22 21 21 19 18 17 16 15 15 14 13 12 11 10 9 8 8
71 67 69 72 72 75 75 73 69 62 59 56 55 54 53 53 52 52 52 51 50 50 49 47 47 47 47 47 47 49 50 50 48 48 48 44 42 43 46 49 49 47 47 46 46 46 45 46 46 45 45 44 43 42 42 42 41 39 37 36 35 36 36 34 33 30 28 27 26 24 24 22 21 20 19 18 17 16 15 14 13 12 12 11 10 9 9 8
66 64 67 70 72 74 74 72 67 62 59 57 54 53 52 52 52 52 51 50 50 49 48 47 46 47 47 46 47 49 49 49 49 47 47 46 44 41 43 48 49 48 49 47 47 47 45 46 46 46 47 45 45 44 44 43 41 39 38 37 37 37 36 34 32 30 29 28 27 26 25 23 21 20 19 18 17 16 15 14 13 12 10 10 10 9 9 8
64 66 68 68 71 74 72 70 66 60 58 57 54 53 52 51 51 51 51 50 49 49 48 46 46 47 46 45 46 48 47 47 47 45 45 46 45 42 40 47 50 51 51 48 48 49 47 47 47 47 47 46 46 46 45 43 42 41 41 41 41 40 37 35 33 32 31 31 30 28 26 24 22 21 19 18 17 16 15 14 12 11 10 9 9 9 9 8
63 67 69 67 68 70 70 68 63 59 58 56 54 52 51 50 50 51 51 49 48 48 47 46 45 46 46 44 45 46 47 47 43 41 44 44 44 42 40 45 50 51 52 50 48 49 49 48 47 49 49 46 47 47 45 44 44 43 43 43 43 41 37 35 35 33 33 32 31 30 28 26 25 23 21 20 19 16 15 13 12 12 12 12 11 10 10 9
63 66 67 66 67 66 67 65 61 59 58 56 54 52 51 50 50 50 50 49 47 47 46 46 45 46 45 43 44 45 46 47 42 41 45 44 43 42 41 44 49 51 51 52 49 49 50 49 49 51 51 47 46 47 45 45 46 44 44 44 42 39 36 36 36 34 33 33 32 31 29 28 27 24 23 22 19 16 15 14 15 16 15 13 12 12 11 10
64 67 67 66 67 65 64 62 59 58 57 56 53 52 51 50 50 50 50 48 46 46 46 45 44 45 45 42 43 45 44 44 42 43 45 45 43 42 43 44 48 50 51 53 51 49 50 50 50 52 53 49 46 46 46 46 44 44 45 44 42 39 37 38 37 35 35 34 32 32 30 30 28 26 25 22 18 17 17 17 17 16 14 13 12 11 10 10
64 67 67 65 64 63 62 60 58 58 56 55 53 52 51 50 50 50 49 47 46 45 45 45 44 44 43 40 42 43 42 43 43 44 46 45 43 42 44 45 48 51 52 54 52 49 49 50 51 52 54 52 48 46 47 46 45 46 46 44 43 40 38 40 38 37 36 35 34 33 32 30 29 27 26 23 20 20 19 18 18 16 14 13 12 11 10 10
64 66 68 67 64 62 60 59 58 58 56 54 54 52 51 50 50 50 49 47 46 44 44 44 43 44 42 40 41 41 41 44 45 45 46 45 44 42 40 43 49 51 53 56 54 51 49 49 51 53 56 55 51 49 49 48 47 48 46 44 42 40 40 41 39 38 37 36 35 34 32 31 30 28 27 23 22 22 21 20 19 17 16 14 13 12 11 11
64 65 67 67 64 62 59 59 58 57 56 54 53 52 51 51 51 50 48 47 46 44 44 44 43 43 40 38 40 41 42 43 42 44 45 44 44 43 37 39 48 51 52 55 54 51 49 49 52 54 57 57 54 52 50 49 49 49 46 43 42 40 41 40 39 39 38 37 36 34 33 32 30 29 27 24 24 24 23 22 20 18 17 16 14 14 13 12
64 66 67 65 62 61 59 59 59 58 56 54 53 52 51 52 51 49 48 47 45 43 43 43 42 40 37 36 39 42 44 43 40 42 44 43 44 44 39 36 44 48 50 52 52 52 49 49 53 55 58 59 55 52 49 49 51 49 46 44 43 42 42 41 40 39 38 37 36 35 34 33 31 29 27 25 26 25 23 22 20 19 18 16 15 14 13 12
63 65 66 65 61 60 59 59 59 58 56 54 53 52 52 53 51 49 48 46 45 43 43 42 41 39 37 38 40 43 46 44 41 41 42 41 42 43 41 37 40 44 47 49 49 51 48 48 53 56 59 59 53 50 48 49 50 48 46 46 46 45 44 43 41 40 38 37 36 35 34 33 30 29 28 27 28 26 23 23 21 19 18 16 16 14 13 13
63 64 65 63 61 60 59 59 59 58 55 54 53 53 53 53 51 49 47 46 45 43 43 42 41 41 41 42 41 43 46 46 43 42 40 39 39 41 41 39 40 41 45 47 47 48 45 46 52 57 61 58 53 51 51 51 51 48 48 48 48 48 47 45 43 41 40 39 37 36 34 31 30 31 30 28 28 26 24 23 21 20 19 18 17 15 15 14
64 65 64 62 62 61 60 60 59 57 55 54 54 54 54 54 51 49 47 46 45 43 43 43 42 42 42 42 41 43 46 46 46 44 41 39 39 40 41 40 40 40 42 45 46 46 45 45 52 58 62 60 56 54 54 53 52 50 51 52 51 50 49 46 45 43 41 40 39 37 34 33 34 33 30 30 29 27 26 24 23 21 20 19 18 17 16 15
66 65 63 62 62 61 60 60 58 57 56 56 55 55 55 53 51 49 48 47 45 44 43 43 42 42 42 42 41 42 45 45 47 48 45 43 42 41 41 41 39 39 41 43 44 46 46 46 51 58 61 62 58 54 54 53 52 52 53 54 53 52 50 48 47 45 43 41 39 38 36 36 35 32 31 31 30 28 27 26 24 22 21 20 20 18 17 16
67 64 62 62 62 62 61 60 59 59 58 57 57 56 55 53 51 50 48 47 46 45 44 43 42 42 41 41 40 42 43 43 45 47 47 46 47 46 45 43 40 39 39 42 45 47 48 47 49 56 61 63 60 55 54 54 53 54 55 55 53 52 51 49 48 46 44 41 40 38 37 37 35 32 32 31 30 29 27 26 25 24 23 22 21 20 18 17
65 63 62 63 63 63 62 61 61 60 59 58 57 56 55 53 52 50 49 48 47 45 44 43 43 42 41 39 39 41 41 42 44 46 46 46 48 48 49 48 44 42 39 41 45 47 48 48 48 54 62 65 61 57 56 56 55 56 57 55 53 53 52 50 48 46 43 41 40 39 38 37 34 32 32 31 31 29 27 27 26 25 24 22 22 21 19 19
62 62 63 64 63 63 63 62 61 60 59 58 57 57 56 54 52 51 50 49 48 47 47 46 44 43 41 37 37 39 40 41 43 45 46 46 46 47 48 49 48 46 42 39 43 47 49 49 49 54 62 66 63 60 59 57 56 57 57 54 54 55 53 50 48 45 42 41 40 39 38 37 34 33 33 32 32 30 28 27 27 25 24 23 23 22 21 21
62 63 64 64 64 64 63 62 60 60 60 60 60 59 58 55 53 52 50 50 49 47 46 44 42 41 38 36 37 38 40 42 43 44 45 45 46 46 47 48 49 49 45 39 38 44 48 49 50 54 60 66 65 61 59 56 55 55 54 53 54 53 50 47 46 43 41 41 41 39 38 37 35 35 35 34 33 31 29 28 27 26 25 24 24 23 23 22
63 64 64 64 64 64 63 62 61 61 62 61 61 60 58 56 55 53 51 48 45 43 41 39 39 40 39 38 39 40 43 44 43 43 44 44 45 46 46 47 48 49 47 42 38 39 44 49 50 50 56 64 65 61 58 55 55 54 52 53 53 49 46 45 44 42 42 42 42 40 39 38 37 36 36 34 32 31 29 28 28 27 26 25 24 24 24 24
64 64 64 64 64 64 64 63 63 63 62 60 59 58 55 52 51 48 46 45 45 43 42 39 39 40 40 39 39 40 43 43 42 43 43 44 44 45 45 45 46 47 46 44 41 38 40 45 48 50 57 65 64 60 58 56 54 54 54 54 52 48 46 47 45 44 44 43 43 42 42 40 39 37 36 35 32 31 30 29 29 28 26 26 25 25 26 25
64 65 65 65 65 65 65 65 64 63 62 60 58 55 52 49 46 43 43 45 46 46 44 43 43 41 39 39 38 39 41 41 41 42 42 42 42 42 43 43 44 44 42 43 42 39 37 40 47 53 61 67 63 60 58 56 55 56 56 54 50 49 49 48 47 45 45 45 45 46 44 41 39 38 38 37 33 32 31 31 30 29 27 26 26 26 26 25
64 65 65 65 66 66 66 65 64 63 62 60 58 55 52 49 47 45 46 46 46 47 47 46 46 44 42 40 39 39 40 39 39 39 39 40 40 40 41 41 42 42 41 40 41 40 36 38 48 57 64 67 63 60 59 57 56 57 54 50 48 49 49 48 47 46 46 47 47 47 44 42 41 40 39 37 34 33 33 32 31 29 27 27 27 27 27 26
64 65 65 66 66 66 66 65 64 63 61 58 57 55 53 51 49 49 49 47 45 46 46 47 47 46 44 40 39 39 40 39 38 38 38 38 38 39 39 39 40 40 39 39 40 40 37 40 51 60 66 67 63 60 58 57 56 55 51 48 48 50 50 48 46 47 47 48 48 47 44 43 42 41 39 37 35 34 34 32 31 30 29 29 28 27 27 26
64 65 65 66 67 67 66 65 64 62 60 58 56 54 52 51 51 51 50 48 46 46 45 45 45 44 43 39 38 39 39 38 37 37 36 36 36 37 37 38 38 38 38 39 39 40 40 44 54 62 66 67 64 60 56 55 55 53 51 49 49 51 52 49 48 48 48 49 48 47 46 44 42 41 39 38 38 35 34 33 32 31 30 29 27 27 27 27
64 65 66 67 67 67 66 65 64 62 60 57 55 52 51 51 51 50 49 48 48 48 46 44 42 41 40 38 37 38 38 37 36 36 36 35 35 35 36 37 37 37 38 40 40 41 43 47 54 62 66 67 63 58 55 55 54 52 51 51 51 53 52 49 49 49 49 49 49 48 48 45 42 42 41 40 38 35 34 33 32 31 31 29 27 27 27 27
65 65 66 67 66 66 66 64 63 61 58 56 53 52 50 50 50 50 49 50 50 48 46 45 44 42 40 39 38 38 38 37 37 37 37 36 36 35 36 36 36 37 39 41 42 42 44 48 55 62 67 66 62 57 55 55 53 52 52 51 51 53 51 49 49 50 50 50 50 49 48 46 44 43 42 40 38 36 35 33 31 32 31 29 28 27 26 26
64 66 67 66 66 66 64 62 62 60 57 55 52 51 50 50 51 50 51 52 51 49 46 44 43 43 42 41 40 40 38 36 37 38 37 36 36 35 35 36 36 37 40 41 42 43 45 50 57 64 67 65 61 57 55 54 53 51 51 50 51 52 51 49 50 50 51 52 52 50 49 48 46 44 42 40 38 37 34 32 31 31 31 29 28 27 26 26
64 66 67 67 67 66 63 60 57 55 54 53 51 51 51 51 51 51 52 52 52 50 47 44 44 44 43 42 41 41 39 38 38 36 34 34 35 34 34 36 36 38 40 41 43 45 48 53 59 64 65 63 60 57 55 54 53 51 50 49 49 49 49 49 50 51 53 54 54 51 50 50 48 45 43 41 38 36 34 33 33 31 30 29 28 27 27 27
64 66 67 67 67 66 63 60 56 53 52 51 51 52 52 52 53 52 53 53 52 50 48 46 45 45 44 42 41 41 40 39 38 36 35 35 34 33 34 36 37 39 41 43 45 47 50 55 60 63 64 63 60 56 54 53 51 50 50 49 47 47 48 50 51 52 54 56 55 52 51 51 50 47 44 42 38 35 34 35 33 30 30 29 28 28 28 28
64 66 66 66 66 65 62 60 57 56 54 52 53 53 53 52 52 53 54 54 52 51 49 47 46 46 44 43 42 42 41 40 38 37 37 36 36 37 37 38 39 41 42 43 45 48 52 57 60 62 65 64 60 56 53 51 51 50 50 50 47 47 49 51 53 54 56 58 56 53 52 53 53 50 46 43 38 34 35 35 32 30 30 29 28 29 28 29
63 65 65 65 65 63 59 57 56 56 55 55 54 54 54 53 54 54 55 55 53 51 49 48 47 45 45 44 43 43 42 40 39 38 37 37 37 37 38 38 40 42 43 44 46 49 54 57 60 62 64 64 60 56 53 51 52 52 51 51 49 49 51 53 56 57 58 58 57 55 54 55 55 50 46 43 38 35 35 34 32 31 30 29 29 29 29 29
63 64 65 65 64 61 58 55 55 55 55 55 56 55 55 56 57 55 54 54 53 49 47 47 46 45 46 47 46 45 42 40 38 37 36 36 35 36 36 37 39 40 42 44 47 51 55 58 60 62 64 64 61 56 53 53 53 54 53 52 52 52 53 54 57 58 58 58 58 56 55 56 54 50 45 43 39 37 34 33 33 32 31 30 30 29 29 29
63 65 66 66 63 59 57 56 55 55 55 55 56 56 57 57 55 52 53 53 51 49 47 47 47 46 47 46 46 46 44 42 39 37 36 37 37 37 37 37 38 40 42 44 47 50 54 56 59 62 65 65 62 58 54 52 51 51 51 51 51 53 53 53 55 56 57 57 57 56 56 56 54 49 45 42 40 38 36 34 33 33 32 31 31 30 30 29
64 66 67 65 62 60 58 57 56 55 55 55 55 56 57 56 53 52 53 52 50 50 48 47 47 47 47 47 46 45 43 42 40 39 39 39 38 37 37 38 38 40 43 45 47 49 52 55 56 60 64 64 61 58 54 51 50 50 50 51 52 52 53 53 53 54 55 56 57 57 57 54 51 49 46 42 41 41 39 37 34 33 33 33 32 32 30 29
65 66 68 66 63 61 60 58 57 56 56 55 56 56 55 54 53 54 53 51 50 50 49 50 50 49 49 48 47 45 43 41 40 40 40 39 38 37 36 37 37 39 42 43 46 49 52 55 56 59 62 61 59 56 53 52 52 52 52 52 52 51 52 52 52 53 54 56 57 57 56 54 51 50 49 46 44 42 41 39 36 34 33 34 33 33 32 31
66 67 69 68 66 64 62 60 59 58 57 56 56 56 54 53 52 53 53 51 51 50 50 51 51 50 50 49 47 45 43 42 42 41 40 39 39 38 36 36 37 39 41 43 46 48 50 54 56 57 59 58 56 54 52 51 52 51 52 51 50 49 49 49 50 51 53 55 57 57 56 54 53 53 51 48 45 42 41 40 38 35 34 34 34 34 33 32
66 68 70 70 69 66 64 63 61 59 58 57 57 55 54 54 53 51 52 52 51 50 48 48 49 48 49 48 46 45 43 43 43 42 42 41 40 38 37 37 37 39 42 44 46 48 49 52 55 56 56 54 52 51 50 51 51 51 51 49 48 48 48 49 50 51 53 54 56 57 56 55 54 52 50 47 44 42 41 40 39 38 36 35 35 35 34 33
68 70 72 72 70 68 66 65 63 61 61 60 60 58 56 55 53 52 53 52 49 47 46 45 44 44 45 44 43 42 42 42 42 42 43 42 40 38 37 38 38 40 43 46 48 50 50 52 54 56 55 52 51 51 52 52 52 51 50 49 48 48 48 49 49 49 51 52 53 56 57 56 53 50 49 47 45 42 41 41 40 39 38 38 37 36 35 34
70 70 72 72 72 70 68 67 65 64 64 63 61 60 59 57 55 55 55 52 48 46 44 43 42 41 42 41 40 39 39 40 41 41 42 41 40 39 39 39 40 42 45 47 49 51 51 52 54 55 56 54 53 54 54 53 51 50 50 49 48 47 47 48 48 47 49 51 52 54 56 55 52 48 47 47 45 42 41 41 41 40 40 40 39 38 36 34
72 72 73 73 73 72 70 69 68 67 66 64 63 62 60 58 57 56 55 51 47 45 43 42 40 39 40 40 39 37 37 39 39 39 41 41 39 38 38 40 41 43 46 49 51 53 53 54 55 56 57 56 55 54 54 52 51 50 49 48 46 45 44 45 46 46 47 48 49 50 52 53 52 48 45 45 44 43 42 42 42 41 41 40 40 39 38 36
74 73 73 74 74 73 72 71 69 68 68 67 65 64 62 60 58 57 55 51 47 44 43 41 40 39 39 38 37 36 36 37 38 38 40 40 37 35 36 39 41 43 46 48 50 52 52 53 55 55 56 57 56 55 54 53 53 52 51 50 47 46 45 44 46 46 46 46 48 48 49 51 51 48 44 42 43 43 43 43 42 41 40 40 40 40 39 38
74 75 73 73 74 74 73 73 72 71 70 69 66 65 63 61 60 59 56 52 49 46 44 44 43 41 40 39 38 37 35 36 36 35 36 37 36 34 35 38 41 44 48 49 50 51 51 52 54 54 55 56 57 56 55 55 54 54 54 52 50 49 47 46 46 46 46 47 46 47 49 50 49 47 44 43 43 42 42 41 41 40 40 40 40 40 40 40
69 74 74 73 74 74 74 75 73 71 71 70 68 68 66 63 61 60 57 53 51 49 47 46 45 43 41 40 40 37 35 36 36 34 34 36 36 34 34 37 41 46 48 50 51 51 51 53 54 55 55 55 57 58 59 59 59 58 56 55 53 52 49 48 48 48 49 50 47 47 51 50 47 45 45 45 44 41 40 40 39 39 39 40 40 40 40 41
65 72 76 75 74 74 75 76 74 71 71 72 71 69 68 65 63 61 58 54 52 51 50 49 47 44 42 41 40 38 36 36 36 35 35 36 37 36 35 37 41 45 47 49 51 51 51 53 55 56 57 58 60 61 62 62 62 61 59 57 56 55 53 51 49 49 51 51 50 50 51 49 46 44 44 44 43 41 40 39 39 39 39 40 40 41 42 42
64 71 76 77 77 76 76 75 74 73 73 71 70 69 68 67 65 62 60 57 54 52 51 50 49 47 45 43 42 40 38 37 38 37 36 36 37 37 36 38 41 44 46 48 50 51 52 53 54 55 57 59 58 58 57 55 56 57 57 56 55 55 54 51 49 51 51 50 51 51 49 46 45 45 45 44 43 41 40 40 41 41 42 42 42 43 43 42
64 67 71 74 76 76 76 76 74 73 71 69 69 67 66 67 66 64 63 60 57 55 54 52 50 49 47 46 45 43 40 39 39 37 36 37 37 38 38 38 41 43 45 47 49 52 53 54 55 56 56 57 55 54 52 51 51 52 53 53 52 51 51 50 51 51 49 50 52 50 46 46 47 46 45 44 43 42 41 42 44 45 45 45 44 44 43 43
63 63 65 66 68 68 67 66 66 67 66 66 67 67 67 67 66 65 64 62 59 58 56 55 53 52 50 48 47 46 44 43 41 40 38 38 38 39 40 40 41 43 45 47 49 51 53 55 55 55 55 55 54 54 53 53 53 52 51 50 49 48 47 48 49 48 47 50 53 49 45 47 48 46 45 45 45 45 45 45 46 47 47 47 45 44 44 44
65 64 64 63 63 62 60 59 62 67 67 67 67 68 67 65 64 64 63 62 61 59 58 58 56 55 54 51 50 49 48 46 44 42 41 39 39 39 40 42 43 44 46 49 50 51 53 54 54 54 54 53 53 54 54 54 54 54 53 52 50 48 47 47 48 47 47 50 52 50 48 50 49 47 47 48 49 49 48 47 47 47 47 47 46 46 47 46
70 67 65 64 61 60 62 64 66 67 67 67 68 67 65 63 62 62 62 61 61 60 59 58 57 56 55 53 52 52 50 48 45 44 42 40 39 39 40 42 42 43 46 48 50 52 52 54 54 54 54 54 54 54 53 54 55 55 55 53 52 51 50 51 52 53 53 54 55 53 54 55 53 50 50 51 51 51 49 48 47 46 47 47 48 49 49 48
72 70 66 65 63 61 63 66 66 65 65 64 62 61 61 60 59 59 60 59 59 59 58 57 56 56 55 54 53 52 50 49 47 45 43 42 40 39 39 40 41 43 44 46 49 51 51 54 55 55 56 56 55 55 55 54 54 55 56 55 55 54 54 55 56 56 56 57 56 56 58 58 54 51 51 51 51 50 48 47 47 47 48 49 49 50 50 49
67 70 67 66 66 64 64 64 65 67 64 58 55 55 56 57 58 60 61 60 59 58 57 56 55 55 55 54 53 52 51 51 49 47 46 45 44 42 42 42 42 43 44 45 47 49 50 51 54 57 59 58 56 57 56 54 55 57 57 56 56 57 57 57 57 56 55 55 56 57 57 54 50 49 49 50 50 50 49 48 48 49 51 52 53 52 52 52
Wind_Direction
216 218 219 220 220 220 220 222 222 220 218 216 215 214 212 211 211 213 216 217 218 219 218 216 214 214 215 215 216 218 220 220 222 222 223 229 231 227 217 209 208 207 207 207 203 199 206 211 204 198 197 194 194 193 193 195 195 196 195 194 193 193 194 193 194 192 188 189 187 184 183 177 174 174 171 169 168 169 167 167 169 168 167 167 166 167 165 162
214 215 217 218 219 220 220 221 221 218 216 215 214 213 213 210 210 213 215 216 217 218 219 217 215 215 217 215 216 219 221 220 222 222 223 231 231 225 219 212 210 209 208 209 207 202 206 212 206 199 197 194 194 194 194 196 196 196 196 196 196 196 196 195 194 192 191 194 192 190 188 184 183 181 178 176 177 177 174 175 177 175 175 175 175 176 175 173
209 211 214 215 216 218 219 220 219 216 214 214 213 213 213 211 210 212 214 216 217 218 219 218 216 217 218 217 216 219 222 222 223 223 225 231 232 228 221 214 212 211 210 212 210 205 207 213 209 200 197 194 193 194 194 196 195 196 198 198 199 200 198 195 195 195 194 197 197 196 194 191 190 188 186 185 185 184 183 185 186 184 184 185 186 185 184 183
207 207 210 210 211 214 216 217 216 213 213 213 212 212 212 211 210 212 214 215 216 217 219 219 217 218 219 218 218 220 222 223 224 224 226 230 232 231 225 217 213 213 213 213 211 208 209 214 212 201 198 195 193 195 195 195 195 197 199 200 201 201 198 196 197 197 196 199 200 199 198 195 196 195 193 193 193 193 192 193 192 191 192 195 196 196 196 195
205 204 205 206 208 210 212 213 212 210 211 211 210 210 211 210 210 212 214 215 216 217 219 219 218 219 220 219 219 221 222 223 222 222 225 228 231 233 231 222 216 215 215 214 211 210 210 213 213 203 197 197 194 194 195 195 196 198 200 202 203 201 198 197 199 199 198 201 201 201 201 199 200 199 199 201 202 201 199 198 196 196 198 198 199 201 204 204
204 201 203 205 206 208 209 209 208 207 208 209 208 208 209 209 210 212 213 215 216 217 219 219 218 219 221 219 219 220 221 224 221 221 224 226 229 231 233 227 220 217 215 213 211 212 212 213 214 205 197 197 196 195 195 197 198 199 201 203 204 202 199 200 202 201 201 203 203 203 203 202 204 202 203 207 207 206 204 204 205 206 206 204 204 206 208 210
204 202 202 204 205 205 206 206 204 205 207 207 206 206 207 207 209 212 213 215 216 217 219 219 218 219 221 220 219 220 221 223 220 221 223 223 226 228 232 231 224 219 214 211 211 213 214 213 214 206 196 195 197 196 196 198 199 201 204 204 204 201 201 203 203 202 203 204 204 205 205 205 206 204 207 209 206 208 210 210 212 215 214 211 211 213 215 216
204 203 201 202 203 203 203 203 201 203 205 205 205 204 205 206 208 211 213 215 216 217 219 219 218 220 221 219 220 220 220 220 218 220 223 222 224 226 230 231 225 219 213 210 212 215 214 214 215 205 195 195 196 198 199 199 200 203 205 205 205 201 202 205 204 203 204 205 206 207 207 208 208 207 209 208 205 211 213 214 217 217 217 216 213 214 217 219
205 204 202 203 202 201 200 200 199 201 203 203 203 204 203 205 207 210 212 214 216 217 218 219 218 219 220 217 217 217 218 220 219 220 224 223 223 225 229 228 223 219 214 213 215 216 214 215 215 204 195 195 195 197 200 200 202 204 205 206 206 203 204 206 204 204 205 205 206 207 208 209 209 209 211 207 206 212 213 214 217 215 217 217 212 211 212 215
204 203 202 202 202 199 197 197 198 199 201 201 202 202 202 203 206 209 211 213 216 216 218 219 218 219 220 218 216 215 217 219 220 221 224 225 223 225 230 228 222 219 217 216 215 214 212 215 214 203 196 196 195 196 199 200 202 204 204 205 206 205 207 208 206 206 206 206 207 207 208 210 210 211 212 208 209 213 212 214 215 214 217 217 214 213 211 213
202 202 202 202 200 197 195 195 196 198 199 200 200 200 201 202 205 208 210 213 215 216 217 217 217 218 215 216 216 215 218 216 216 220 222 224 224 225 231 229 223 219 218 216 213 212 212 216 215 205 198 196 195 197 199 201 203 204 203 204 205 206 209 210 209 209 208 207 207 206 208 209 210 211 211 210 213 214 212 214 215 214 217 218 219 219 214 214
202 203 203 201 198 195 194 193 195 197 198 198 198 199 199 202 205 207 210 211 214 215 216 216 216 214 208 211 214 215 219 215 213 218 218 221 222 224 230 230 225 221 219 216 211 211 214 218 218 206 198 197 196 197 199 204 205 203 203 205 205 206 208 210 210 210 210 210 209 208 209 209 209 211 211 211 215 215 214 215 215 215 216 218 221 222 220 218
201 203 202 198 194 193 192 193 195 195 196 197 197 198 199 202 204 206 209 211 213 214 215 215 215 212 208 210 212 215 220 215 213 215 213 217 220 222 228 229 227 223 220 217 213 213 214 219 220 209 198 197 197 197 199 204 205 202 203 207 207 207 208 209 210 210 210 211 211 210 210 208 209 211 210 211 215 214 214 216 215 215 215 217 220 222 222 221
201 201 199 194 192 192 191 192 194 194 194 195 196 197 198 201 203 206 208 209 212 212 213 214 214 213 211 212 212 216 220 216 214 215 214 216 219 222 226 227 227 226 223 219 215 215 216 220 222 214 201 195 196 198 200 203 203 202 204 206 207 208 208 208 209 209 210 211 211 211 210 208 210 211 209 211 214 213 214 216 216 217 216 217 220 221 223 223
200 199 195 191 190 190 190 192 192 192 194 194 195 196 198 200 202 205 207 209 210 210 212 213 212 213 213 212 212 217 222 219 218 219 218 219 221 222 224 225 225 226 225 222 219 216 217 219 223 218 204 194 195 200 203 203 202 202 205 207 207 208 208 208 209 208 209 210 211 212 210 212 213 212 212 213 214 213 215 217 217 217 217 219 221 222 225 226
199 197 192 190 190 190 190 191 190 191 193 194 195 196 197 199 202 204 206 207 208 208 210 211 211 212 212 213 213 218 223 221 220 221 221 222 224 224 225 227 227 227 226 223 221 218 217 218 222 220 205 195 195 199 204 205 203 204 206 207 207 209 209 208 209 209 208 209 211 212 212 214 214 213 215 215 216 216 215 218 218 219 219 221 223 224 226 229
197 193 189 189 190 190 190 189 189 191 192 193 194 195 197 198 201 203 205 206 206 206 207 208 209 209 210 212 215 220 223 222 221 222 222 224 226 226 227 229 231 231 227 223 222 220 219 218 221 219 205 196 195 198 203 205 204 205 206 207 207 209 210 208 209 209 209 210 212 213 214 216 215 214 217 217 219 218 217 220 221 221 222 223 225 226 227 229
195 189 187 189 189 190 188 188 189 190 191 192 193 195 197 198 200 202 204 205 205 204 205 206 208 210 210 212 217 221 224 224 223 222 223 225 227 228 228 228 229 231 228 223 223 222 221 219 220 219 206 196 196 198 201 204 205 207 207 207 208 210 210 208 209 209 209 211 214 214 216 218 216 215 218 217 219 220 218 220 222 224 225 225 227 227 227 228
190 186 187 188 189 189 188 188 189 190 191 192 194 196 196 197 198 200 202 204 206 208 211 213 215 217 217 216 218 221 224 225 223 223 224 226 229 231 230 229 229 232 231 227 226 224 223 222 221 220 209 199 197 199 202 204 207 209 208 208 210 211 211 209 209 209 209 212 215 216 217 219 218 216 218 218 218 220 218 220 223 225 226 226 228 229 229 229
186 186 187 188 189 189 188 188 189 190 192 194 195 197 197 198 199 200 201 204 208 211 216 218 218 220 217 217 217 218 222 223 223 223 224 226 229 231 232 232 231 234 236 234 233 230 227 224 223 222 212 200 197 200 203 205 207 209 208 210 212 212 213 212 209 210 211 212 215 217 217 219 219 217 219 219 218 220 220 221 224 226 227 228 229 231 232 232
185 186 187 188 189 189 189 189 190 191 193 195 197 198 200 203 205 207 208 207 209 210 212 213 215 217 215 213 214 216 220 222 222 223 224 226 228 230 232 233 233 235 237 237 238 236 232 227 224 221 208 198 197 200 204 206 207 209 209 209 210 210 212 211 208 209 211 213 214 216 217 218 219 219 221 221 218 220 222 223 225 226 226 228 230 232 234 235
186 187 188 188 189 189 189 190 191 192 193 195 197 198 200 203 206 210 212 213 212 211 212 211 213 215 213 212 213 217 221 222 223 224 224 226 227 229 232 233 234 235 236 237 238 238 235 229 224 216 203 196 198 201 204 206 207 210 210 208 209 209 211 211 208 208 211 213 214 216 217 217 219 220 221 221 217 219 223 225 226 226 226 227 230 232 235 237
187 188 188 188 189 189 190 191 192 193 195 195 196 197 198 200 202 204 208 212 213 212 211 212 214 214 211 211 212 217 222 223 224 226 226 227 228 229 230 231 233 234 233 235 237 237 237 232 224 212 200 196 198 201 204 206 208 212 211 209 210 211 213 212 209 208 212 215 216 218 217 216 218 220 221 221 217 218 223 225 227 228 226 227 230 233 236 239
188 188 188 188 189 190 190 192 193 194 196 196 196 197 197 199 200 202 206 208 211 214 213 211 212 212 209 207 209 215 219 221 224 226 227 228 228 228 229 229 231 231 231 232 234 235 236 231 220 209 198 196 199 202 205 207 210 213 211 210 212 212 214 214 211 210 213 217 219 219 219 217 218 220 221 222 219 217 221 225 228 230 229 229 230 233 238 240
189 189 189 189 189 190 191 192 194 194 196 196 196 197 198 199 200 202 205 205 208 212 214 214 211 209 206 203 207 213 217 219 222 225 226 228 229 229 228 228 229 230 229 230 232 232 234 228 217 207 198 196 199 202 205 209 212 213 211 211 212 213 214 214 212 213 214 218 220 221 221 218 218 221 220 222 221 217 219 223 227 231 232 232 231 233 237 241
189 189 189 190 190 191 192 193 194 195 196 197 196 197 198 200 201 202 203 205 208 208 210 213 212 212 209 205 206 212 216 218 221 224 225 227 229 229 229 228 228 227 227 228 230 230 231 227 218 209 199 197 200 202 205 210 213 214 212 211 213 213 214 214 214 215 216 219 221 222 222 219 218 220 220 221 223 219 218 222 226 230 233 235 235 235 236 239
190 190 190 191 191 192 193 193 194 195 196 196 197 197 198 200 202 202 202 205 208 208 208 209 209 211 212 211 211 214 218 219 221 224 225 226 228 229 229 228 226 226 226 227 228 229 230 227 220 210 200 198 201 202 206 211 213 214 212 212 214 214 213 214 215 217 218 219 221 222 223 221 218 220 221 221 224 223 222 223 226 231 234 235 237 239 240 241
191 191 191 191 192 193 194 195 195 195 196 196 196 197 198 200 202 202 203 206 206 206 207 208 207 209 210 211 214 217 220 221 223 226 226 227 228 228 229 228 226 227 227 226 228 229 229 226 220 209 200 199 201 203 207 211 214 214 213 213 216 216 215 215 216 218 219 220 222 221 223 223 219 218 222 222 223 224 225 227 229 231 234 236 238 240 242 244
192 191 191 192 192 194 194 195 196 196 196 196 196 197 198 200 202 202 204 207 206 205 206 206 207 209 211 212 214 218 219 219 223 226 228 230 231 230 229 228 226 226 226 226 227 227 226 224 216 206 200 200 202 204 207 211 214 215 214 214 217 218 217 217 218 219 220 222 222 221 222 224 220 217 221 223 222 225 227 230 231 232 234 236 239 241 243 245
193 192 192 193 193 194 194 194 195 196 197 197 197 198 199 200 201 202 205 206 206 206 205 205 206 208 211 213 216 219 220 220 222 224 226 229 231 232 231 230 229 227 226 224 225 226 224 220 213 205 201 201 202 205 207 210 213 215 216 216 217 220 220 220 221 221 223 223 222 221 222 224 223 218 219 222 222 225 229 231 231 233 234 235 238 241 243 245
193 193 193 194 195 195 195 195 195 195 197 199 200 200 199 200 201 203 205 205 206 206 205 206 207 208 211 214 217 219 220 220 221 223 225 227 229 230 229 229 229 228 227 225 225 226 224 218 212 207 204 203 203 206 208 210 213 214 216 216 216 220 221 221 222 222 223 223 222 222 222 224 224 220 219 222 221 224 230 232 233 235 235 235 237 240 242 245
193 194 194 195 196 196 196 197 197 197 198 199 201 201 200 199 201 204 205 205 207 207 206 207 209 209 211 213 216 220 222 221 221 222 225 228 231 233 232 231 231 230 229 227 225 225 223 219 213 208 206 205 204 206 209 211 213 215 216 216 216 220 222 222 222 223 223 223 223 223 223 224 224 222 222 223 222 224 230 233 234 236 237 236 236 238 240 243
194 195 195 196 197 196 196 197 199 199 200 200 200 201 202 202 203 205 205 206 208 207 207 209 211 212 212 212 214 217 220 222 223 224 226 230 232 234 235 234 234 233 233 230 227 225 223 219 215 210 207 206 206 207 210 211 213 216 217 217 217 220 222 222 223 224 224 224 224 224 225 225 225 224 225 225 225 226 229 233 235 236 237 237 237 238 239 242
194 194 196 197 196 196 196 197 198 200 202 202 202 201 202 205 206 207 208 208 208 208 209 210 210 212 213 214 216 217 217 218 220 223 226 230 233 234 235 234 233 233 233 231 230 229 226 222 218 213 209 208 208 209 211 212 215 218 220 220 220 223 225 225 226 227 226 226 227 227 227 227 226 226 227 228 229 229 230 233 235 237 237 237 238 240 241 243
193 195 196 196 196 195 196 197 198 200 202 203 203 203 204 205 206 208 211 210 209 209 209 210 211 212 213 215 217 219 219 219 219 221 223 226 231 234 237 237 234 233 233 231 229 229 228 225 220 215 210 209 209 211 212 214 215 217 220 221 222 224 226 227 228 229 229 229 230 230 230 229 228 229 230 230 231 232 233 233 234 237 239 239 239 240 242 244
193 195 196 196 196 196 196 198 199 200 202 203 204 206 207 207 208 210 211 210 211 211 209 210 210 212 214 215 216 217 219 221 223 224 225 227 230 233 236 239 238 237 237 235 232 228 225 223 219 214 212 211 211 213 214 215 216 218 220 221 221 224 228 229 230 231 231 231 231 231 231 230 230 231 230 230 231 233 236 237 237 238 239 241 241 241 243 246
195 195 196 196 197 197 197 198 201 201 202 204 206 208 208 207 209 211 212 211 212 212 211 212 213 213 215 217 218 218 218 218 221 224 225 228 231 233 235 236 236 236 238 237 235 232 227 224 219 213 212 213 213 215 216 217 218 220 222 223 222 225 228 230 231 232 233 233 232 232 231 231 231 231 231 232 233 234 237 241 242 242 241 243 243 243 245 247
196 195 196 198 198 199 199 200 202 203 203 205 207 209 209 208 209 211 213 213 213 214 213 215 217 217 218 219 219 219 219 219 221 222 223 225 229 231 233 235 234 233 235 234 232 231 228 225 221 215 213 214 215 217 218 218 219 221 223 224 225 227 228 229 231 232 233 234 234 233 233 232 232 232 234 236 237 238 238 240 243 245 245 245 245 245 247 249
196 196 196 198 200 200 201 202 203 203 205 207 208 208 209 210 210 211 214 214 214 215 215 215 217 219 222 225 224 222 222 222 223 224 225 226 228 229 229 233 233 231 232 232 230 228 226 224 222 218 215 215 216 217 218 219 220 222 223 224 226 228 229 230 232 233 234 235 236 235 235 234 233 234 237 238 239 241 241 241 243 245 247 248 248 247 248 250
196 197 198 198 200 202 202 203 204 205 207 209 210 210 210 210 210 212 214 214 212 214 216 217 218 219 222 225 226 226 227 227 227 228 228 229 231 231 228 229 230 228 230 230 228 227 225 224 224 220 217 218 218 218 219 220 221 223 224 225 227 229 230 232 232 234 235 237 237 237 237 236 234 235 239 240 241 243 243 243 243 244 246 248 249 250 250 251
196 197 199 199 201 203 204 204 205 207 210 210 210 211 211 211 211 213 214 214 212 213 215 216 217 219 222 224 224 225 226 229 230 230 231 232 234 235 233 231 229 227 228 229 227 227 225 223 224 223 221 220 221 222 221 222 222 223 225 226 227 230 234 235 235 235 237 238 239 240 240 239 237 236 239 242 243 244 244 244 244 244 245 246 248 250 252 253
198 197 199 201 202 204 205 207 207 209 211 212 212 212 213 213 214 215 215 214 212 213 214 215 215 217 221 223 224 224 226 230 232 231 232 232 234 237 237 234 231 228 227 228 228 228 226 225 225 224 223 222 222 224 224 224 224 224 225 225 226 228 231 234 235 235 237 239 240 241 241 240 239 237 238 241 243 244 244 244 245 245 245 245 247 249 252 255
200 198 199 201 203 205 206 207 209 210 212 213 213 215 215 214 215 217 216 214 213 214 215 217 216 216 218 221 222 222 224 229 232 233 233 233 234 237 236 232 231 229 227 227 227 228 227 227 227 226 225 224 224 224 225 226 226 226 226 226 226 228 229 232 234 235 236 236 238 241 240 238 239 239 237 238 240 243 245 246 247 247 247 247 248 249 251 254
202 201 200 201 203 206 207 208 210 213 214 214 215 217 217 216 217 218 217 216 215 216 218 219 220 218 218 221 222 221 222 226 229 229 230 231 231 234 235 232 229 229 228 228 229 229 228 228 228 228 227 226 225 225 225 226 227 228 228 228 228 229 230 232 234 234 235 234 234 239 238 236 237 239 238 239 241 244 247 249 250 250 249 248 249 250 252 254
203 202 202 202 203 205 207 210 212 214 215 215 215 217 218 218 218 218 218 217 218 219 220 221 222 221 220 222 223 222 222 225 228 228 227 228 227 228 231 231 229 230 229 228 229 230 229 229 229 229 229 229 228 229 229 230 230 230 229 229 229 229 229 231 234 236 236 235 235 238 239 237 238 240 241 243 244 246 247 249 249 249 250 250 250 251 252 253
205 204 204 204 204 206 208 210 212 214 216 218 218 219 220 219 219 220 219 218 218 220 222 223 224 222 221 222 224 224 223 225 227 228 228 228 227 227 228 229 229 230 231 230 229 229 230 231 230 231 233 234 234 234 234 234 233 233 231 231 231 232 232 232 234 236 238 238 238 240 240 241 241 242 244 245 246 246 246 247 248 249 249 250 250 251 252 253
207 209 208 207 207 208 209 211 214 216 218 220 221 223 223 222 222 222 221 220 219 220 221 223 225 225 224 224 225 226 226 227 230 230 230 230 229 228 228 230 230 231 232 232 231 230 231 232 232 232 234 235 235 234 233 233 234 234 234 233 234 235 235 235 236 237 239 241 241 241 242 243 243 244 245 245 245 245 244 245 246 247 248 250 251 252 253 254
205 209 211 213 213 212 212 213 214 217 219 220 222 224 226 226 225 225 224 223 222 221 222 224 225 227 227 227 228 228 228 229 231 232 232 232 232 232 231 231 231 232 233 233 233 232 233 235 236 235 235 235 234 233 231 231 232 232 232 231 231 232 234 235 237 237 238 241 242 240 241 242 242 242 243 242 242 242 241 243 244 246 248 250 253 254 255 255
202 207 209 212 215 216 216 216 215 215 217 219 220 223 225 227 227 227 227 226 225 224 224 226 227 227 228 227 227 229 230 230 232 234 235 234 234 235 235 234 234 234 234 235 235 235 235 236 237 236 236 235 235 234 233 231 231 231 230 229 228 228 230 231 232 232 233 237 239 236 236 236 235 236 238 238 239 239 240 243 245 247 250 252 254 255 256 256
204 207 209 210 212 214 216 217 217 217 217 219 220 222 224 226 226 228 228 228 228 228 228 228 229 229 229 229 228 229 231 232 233 236 238 238 239 240 241 241 240 238 237 237 237 237 237 237 237 237 237 236 235 235 234 233 232 232 231 229 228 227 228 229 231 231 232 234 236 234 233 233 233 234 237 239 241 242 243 246 248 250 252 253 254 255 255 256
209 210 211 211 212 213 215 217 219 220 222 222 223 224 225 226 226 228 228 228 229 230 231 232 232 232 231 231 231 232 234 234 235 235 236 238 240 242 244 244 243 242 241 241 242 240 238 238 238 238 237 237 236 236 236 235 234 233 231 230 230 230 231 232 234 235 234 235 236 236 237 238 238 238 239 242 245 246 247 249 250 251 252 253 253 253 254 255
210 212 213 213 214 215 216 217 218 221 223 225 227 228 230 230 229 230 229 229 228 228 229 231 233 233 233 233 233 233 234 235 236 236 236 236 237 237 239 240 239 239 239 240 243 244 241 239 239 238 238 239 239 238 238 238 237 235 233 232 233 234 235 235 236 236 236 237 238 239 242 244 242 241 241 243 245 248 249 250 250 251 252 252 252 253 254 255
Height
5643 5649 5657 5664 5671 5677 5682 5688 5694 5701 5707 5712 5717 5722 5727 5731 5734 5737 5740 5744 5747 5750 5754 5757 5760 5764 5767 5771 5774 5776 5778 5781 5784 5788 5791 5794 5796 5798 5802 5805 5809 5813 5816 5820 5823 5826 5829 5831 5833 5836 5839 5842 5845 5848 5851 5853 5855 5857 5860 5863 5866 5867 5869 5870 5871 5873 5876 5878 5879 5881 5881 5883 5883 5884 5886 5887 5888 5889 5890 5891 5892 5893 5894 5895 5896 5896 5897 5898
5639 5645 5652 5659 5667 5672 5678 5684 5690 5697 5703 5707 5713 5718 5723 5728 5731 5734 5737 5741 5744 5748 5751 5754 5757 5761 5764 5767 5771 5773 5775 5778 5781 5785 5789 5791 5792 5795 5799 5803 5807 5810 5813 5817 5820 5823 5826 5828 5830 5834 5836 5840 5843 5846 5849 5851 5854 5857 5860 5862 5864 5865 5866 5867 5870 5873 5876 5877 5879 5880 5881 5882 5883 5884 5886 5887 5888 5889 5890 5891 5892 5893 5894 5895 5896 5896 5897 5898
5635 5643 5648 5655 5662 5667 5674 5680 5686 5693 5698 5704 5710 5715 5719 5725 5729 5731 5734 5737 5741 5745 5748 5751 5754 5757 5760 5764 5767 5769 5772 5775 5778 5783 5786 5787 5789 5792 5795 5799 5803 5807 5810 5813 5817 5821 5823 5826 5829 5832 5834 5837 5840 5843 5846 5849 5853 5856 5858 5860 5862 5863 5865 5867 5870 5873 5875 5876 5878 5879 5880 5882 5883 5884 5885 5886 5888 5889 5890 5891 5892 5893 5894 5895 5896 5896 5897 5898
5630 5639 5644 5649 5655 5661 5668 5675 5682 5689 5695 5700 5706 5711 5716 5721 5725 5728 5731 5734 5739 5742 5745 5748 5751 5754 5757 5761 5764 5767 5770 5772 5776 5782 5783 5784 5786 5789 5792 5795 5800 5803 5806 5810 5815 5818 5821 5823 5826 5830 5833 5835 5837 5840 5843 5847 5851 5853 5855 5857 5858 5860 5864 5867 5868 5870 5872 5874 5876 5878 5879 5881 5882 5883 5885 5886 5887 5888 5890 5891 5892 5893 5894 5895 5895 5896 5897 5898
5625 5633 5639 5645 5650 5656 5664 5671 5678 5685 5690 5696 5703 5708 5713 5718 5722 5725 5728 5732 5736 5739 5742 5745 5748 5751 5754 5758 5761 5764 5766 5769 5775 5779 5778 5781 5784 5787 5789 5792 5796 5799 5803 5807 5811 5815 5818 5821 5824 5827 5830 5833 5835 5837 5842 5845 5847 5850 5853 5854 5856 5860 5864 5866 5867 5868 5871 5872 5874 5876 5878 5880 5881 5882 5884 5885 5886 5888 5890 5891 5892 5892 5893 5894 5895 5896 5896 5897
5622 5628 5635 5641 5646 5653 5660 5667 5674 5681 5686 5692 5699 5704 5709 5714 5719 5722 5725 5729 5733 5736 5739 5742 5745 5748 5751 5755 5758 5761 5763 5766 5772 5774 5774 5778 5781 5784 5786 5788 5793 5796 5800 5804 5808 5812 5816 5818 5821 5823 5827 5832 5834 5836 5840 5842 5845 5848 5851 5853 5857 5861 5864 5865 5866 5868 5869 5871 5873 5874 5877 5878 5879 5881 5883 5884 5886 5888 5889 5890 5891 5891 5892 5893 5894 5895 5896 5897
5619 5625 5631 5637 5643 5650 5657 5664 5671 5677 5682 5689 5695 5701 5706 5711 5715 5718 5722 5726 5730 5733 5736 5740 5743 5745 5748 5752 5755 5758 5761 5764 5768 5769 5771 5775 5778 5782 5784 5785 5789 5793 5798 5801 5805 5809 5812 5815 5817 5819 5823 5828 5833 5836 5838 5841 5845 5847 5849 5852 5855 5859 5862 5863 5864 5866 5868 5870 5872 5873 5875 5876 5878 5880 5881 5883 5885 5887 5888 5889 5890 5891 5892 5892 5893 5894 5895 5896
5615 5622 5628 5633 5639 5646 5654 5661 5667 5673 5679 5685 5692 5697 5702 5707 5711 5715 5719 5723 5726 5730 5734 5737 5740 5743 5746 5750 5753 5756 5759 5761 5763 5765 5768 5772 5775 5779 5781 5783 5786 5790 5795 5798 5802 5806 5808 5812 5814 5816 5821 5825 5829 5834 5837 5840 5843 5844 5847 5851 5854 5857 5859 5860 5862 5864 5866 5868 5870 5871 5873 5875 5877 5879 5880 5882 5884 5885 5886 5888 5888 5890 5891 5892 5893 5894 5895 5896
5612 5618 5624 5630 5636 5643 5650 5657 5664 5669 5675 5682 5688 5693 5699 5704 5708 5712 5716 5719 5723 5728 5731 5734 5737 5740 5744 5748 5750 5753 5755 5756 5759 5763 5765 5769 5773 5775 5778 5780 5783 5787 5791 5795 5799 5803 5806 5810 5811 5813 5817 5821 5824 5829 5833 5837 5840 5841 5845 5849 5852 5855 5856 5858 5861 5862 5864 5866 5868 5869 5872 5874 5875 5877 5878 5881 5883 5883 5885 5886 5887 5889 5889 5890 5892 5893 5893 5895
5608 5615 5621 5626 5633 5640 5647 5654 5660 5665 5671 5678 5684 5690 5695 5700 5704 5708 5712 5716 5720 5725 5728 5731 5735 5738 5742 5745 5748 5750 5751 5753 5758 5761 5763 5766 5770 5773 5776 5778 5780 5784 5788 5791 5796 5800 5804 5806 5806 5809 5813 5817 5821 5825 5829 5834 5836 5839 5843 5847 5851 5853 5855 5856 5859 5860 5862 5864 5866 5868 5870 5872 5874 5876 5878 5880 5881 5881 5883 5884 5886 5887 5888 5889 5890 5891 5892 5893
5605 5611 5617 5624 5631 5637 5644 5651 5656 5662 5667 5674 5681 5686 5692 5697 5701 5705 5709 5713 5717 5721 5725 5729 5733 5736 5740 5743 5746 5747 5747 5751 5755 5757 5760 5763 5767 5771 5773 5775 5778 5781 5784 5788 5793 5797 5799 5800 5802 5805 5810 5814 5818 5823 5828 5831 5832 5836 5841 5845 5847 5850 5852 5855 5857 5858 5861 5862 5864 5867 5868 5870 5872 5875 5877 5878 5878 5879 5882 5883 5884 5886 5887 5888 5890 5890 5891 5892
5602 5607 5613 5620 5628 5635 5641 5647 5653 5658 5664 5671 5677 5683 5689 5693 5698 5702 5706 5710 5714 5718 5722 5726 5730 5733 5736 5738 5742 5743 5743 5749 5753 5755 5758 5761 5764 5768 5770 5773 5774 5777 5780 5784 5789 5791 5793 5796 5799 5802 5806 5811 5817 5822 5827 5829 5830 5835 5840 5841 5843 5846 5848 5851 5854 5857 5859 5861 5863 5865 5866 5869 5872 5874 5875 5876 5877 5878 5880 5881 5883 5885 5886 5887 5889 5890 5890 5891
5599 5604 5610 5617 5625 5632 5638 5644 5649 5655 5661 5668 5674 5680 5685 5690 5694 5698 5702 5707 5710 5715 5719 5723 5726 5729 5732 5735 5738 5739 5740 5746 5750 5753 5756 5758 5762 5765 5767 5770 5771 5773 5777 5780 5784 5787 5789 5792 5796 5799 5803 5809 5814 5818 5821 5824 5827 5833 5836 5838 5840 5842 5844 5848 5851 5854 5857 5859 5861 5863 5865 5869 5870 5870 5872 5874 5875 5877 5879 5880 5882 5883 5885 5886 5887 5888 5889 5890
5595 5601 5607 5614 5621 5628 5635 5640 5646 5652 5658 5664 5671 5676 5681 5686 5691 5695 5699 5703 5707 5712 5715 5719 5723 5725 5729 5731 5734 5736 5737 5743 5748 5750 5754 5757 5759 5762 5764 5767 5769 5771 5774 5777 5780 5783 5785 5788 5792 5795 5799 5805 5811 5815 5817 5819 5824 5830 5831 5833 5836 5839 5842 5845 5847 5851 5853 5856 5858 5861 5864 5866 5866 5867 5870 5872 5873 5875 5877 5878 5880 5881 5883 5884 5886 5887 5888 5889
5592 5598 5604 5612 5618 5625 5631 5637 5643 5649 5655 5661 5667 5672 5678 5683 5687 5691 5695 5699 5703 5708 5712 5716 5719 5722 5725 5728 5732 5734 5734 5741 5746 5747 5752 5754 5756 5759 5761 5763 5766 5769 5771 5774 5777 5779 5781 5785 5789 5792 5796 5802 5807 5812 5816 5818 5822 5826 5827 5829 5833 5835 5839 5842 5844 5847 5850 5853 5856 5859 5862 5862 5864 5867 5869 5870 5872 5873 5875 5876 5878 5880 5881 5882 5884 5885 5886 5887
5589 5595 5602 5609 5616 5622 5628 5634 5640 5646 5651 5657 5663 5669 5674 5679 5683 5687 5691 5696 5700 5704 5708 5713 5716 5719 5722 5724 5729 5731 5733 5740 5743 5745 5749 5752 5753 5755 5758 5760 5763 5766 5768 5771 5773 5775 5778 5782 5786 5790 5794 5798 5803 5809 5813 5816 5819 5822 5824 5827 5831 5833 5836 5839 5841 5844 5848 5851 5854 5857 5859 5860 5864 5866 5867 5869 5870 5871 5873 5875 5876 5878 5879 5881 5882 5884 5885 5886
5586 5593 5600 5606 5613 5619 5625 5631 5636 5642 5648 5654 5660 5666 5671 5675 5680 5683 5687 5692 5696 5701 5705 5709 5712 5715 5718 5722 5727 5729 5732 5737 5740 5742 5746 5748 5750 5752 5754 5757 5760 5764 5766 5768 5770 5772 5776 5779 5784 5787 5791 5795 5799 5804 5809 5812 5816 5819 5821 5824 5828 5830 5833 5837 5840 5843 5848 5850 5852 5855 5857 5859 5862 5865 5866 5867 5868 5870 5872 5873 5874 5876 5878 5879 5881 5882 5883 5884
5584 5591 5597 5604 5611 5616 5622 5628 5633 5639 5646 5652 5657 5662 5666 5671 5675 5679 5684 5688 5692 5696 5699 5703 5708 5712 5717 5723 5727 5729 5730 5734 5737 5739 5742 5745 5746 5748 5751 5754 5757 5760 5763 5766 5768 5771 5773 5777 5781 5783 5787 5792 5797 5801 5805 5810 5815 5816 5818 5822 5825 5826 5830 5835 5838 5842 5846 5849 5851 5853 5855 5858 5861 5863 5864 5865 5866 5868 5870 5871 5873 5874 5876 5878 5879 5880 5881 5882
5582 5589 5595 5602 5608 5614 5620 5625 5631 5638 5643 5648 5652 5656 5661 5665 5670 5675 5680 5685 5689 5695 5700 5706 5711 5715 5720 5724 5726 5726 5727 5729 5733 5736 5739 5741 5743 5745 5748 5751 5754 5756 5759 5763 5766 5769 5771 5774 5777 5780 5785 5791 5796 5800 5804 5809 5812 5814 5818 5822 5823 5825 5830 5835 5839 5842 5845 5848 5849 5851 5854 5856 5858 5860 5861 5862 5864 5866 5868 5869 5871 5872 5874 5876 5877 5878 5879 5880
5580 5587 5594 5600 5606 5612 5618 5624 5630 5635 5640 5644 5648 5652 5656 5661 5666 5672 5679 5686 5692 5698 5703 5709 5712 5714 5718 5720 5721 5722 5721 5723 5728 5732 5735 5738 5740 5742 5744 5747 5750 5753 5757 5761 5763 5766 5768 5771 5775 5780 5786 5790 5794 5798 5802 5805 5808 5812 5817 5819 5822 5827 5832 5835 5839 5841 5843 5845 5846 5849 5851 5853 5855 5857 5858 5860 5862 5864 5866 5868 5869 5870 5872 5874 5875 5876 5876 5877
5579 5585 5592 5598 5604 5610 5616 5622 5627 5632 5637 5643 5648 5653 5659 5665 5670 5677 5683 5688 5692 5695 5700 5705 5707 5709 5713 5716 5717 5717 5716 5720 5725 5728 5732 5734 5737 5739 5741 5744 5748 5751 5754 5758 5760 5763 5765 5769 5775 5780 5784 5786 5789 5794 5798 5802 5806 5809 5811 5814 5819 5825 5828 5831 5835 5837 5839 5841 5843 5845 5846 5849 5852 5854 5856 5858 5860 5863 5864 5866 5867 5868 5870 5872 5873 5874 5874 5875
5577 5583 5589 5596 5602 5608 5614 5619 5624 5630 5635 5640 5647 5654 5661 5667 5673 5680 5684 5685 5687 5690 5695 5699 5701 5705 5710 5712 5713 5714 5715 5719 5723 5726 5729 5732 5734 5737 5739 5742 5745 5748 5751 5754 5758 5761 5764 5769 5774 5776 5778 5782 5786 5791 5795 5799 5803 5804 5806 5811 5817 5821 5824 5827 5831 5833 5835 5837 5838 5840 5842 5846 5850 5851 5853 5855 5859 5861 5862 5863 5865 5866 5868 5870 5871 5871 5872 5874
5576 5581 5587 5593 5600 5606 5611 5617 5622 5627 5633 5639 5645 5652 5658 5664 5670 5675 5678 5680 5683 5686 5690 5693 5696 5701 5705 5708 5710 5711 5713 5718 5721 5724 5727 5729 5732 5734 5736 5739 5742 5745 5748 5752 5755 5758 5762 5766 5770 5771 5773 5778 5783 5787 5790 5795 5798 5800 5806 5812 5816 5819 5822 5824 5828 5831 5832 5833 5835 5837 5840 5844 5846 5848 5850 5853 5857 5858 5859 5861 5862 5864 5866 5867 5868 5869 5870 5872
5574 5580 5585 5592 5598 5603 5609 5614 5620 5625 5632 5638 5643 5649 5654 5660 5665 5669 5672 5676 5681 5684 5687 5689 5692 5696 5700 5703 5706 5707 5710 5715 5718 5721 5724 5726 5729 5731 5734 5736 5739 5742 5746 5749 5752 5756 5759 5762 5764 5766 5769 5774 5779 5783 5787 5792 5795 5799 5806 5811 5814 5817 5819 5822 5826 5828 5829 5830 5832 5835 5838 5841 5844 5845 5848 5852 5854 5855 5856 5858 5859 5861 5863 5864 5866 5867 5868 5869
5572 5578 5584 5590 5595 5600 5606 5612 5617 5624 5630 5635 5641 5647 5652 5656 5660 5663 5667 5672 5676 5679 5684 5687 5690 5693 5696 5700 5703 5705 5708 5712 5715 5718 5721 5724 5726 5729 5731 5733 5736 5740 5744 5747 5749 5753 5755 5758 5760 5762 5766 5770 5774 5779 5786 5790 5793 5798 5803 5807 5810 5812 5815 5819 5823 5824 5826 5827 5830 5833 5835 5838 5842 5843 5846 5849 5849 5852 5854 5855 5857 5858 5860 5861 5863 5865 5866 5867
5570 5576 5582 5587 5592 5598 5604 5610 5616 5622 5627 5633 5640 5645 5649 5653 5657 5660 5665 5669 5670 5673 5679 5684 5688 5691 5695 5698 5700 5703 5706 5709 5713 5716 5718 5721 5724 5726 5729 5731 5735 5738 5741 5743 5746 5749 5752 5755 5758 5760 5763 5767 5771 5778 5783 5787 5790 5794 5799 5803 5805 5808 5813 5817 5819 5821 5823 5825 5827 5830 5831 5836 5839 5840 5843 5845 5846 5850 5851 5852 5855 5856 5857 5859 5861 5863 5864 5865
5569 5575 5580 5586 5592 5597 5602 5608 5614 5620 5626 5632 5638 5642 5646 5649 5653 5657 5661 5662 5665 5670 5675 5679 5684 5688 5693 5697 5699 5701 5704 5708 5712 5713 5716 5719 5721 5724 5726 5729 5732 5735 5737 5740 5743 5747 5750 5753 5755 5757 5760 5764 5769 5775 5780 5784 5787 5791 5796 5800 5802 5805 5810 5813 5815 5817 5819 5821 5824 5826 5829 5832 5835 5837 5839 5842 5844 5847 5848 5850 5852 5853 5855 5857 5858 5859 5861 5862
5567 5573 5579 5585 5591 5596 5603 5608 5613 5619 5625 5630 5635 5639 5642 5646 5649 5652 5655 5656 5661 5667 5671 5676 5681 5685 5689 5693 5696 5699 5703 5708 5710 5711 5714 5717 5719 5721 5724 5726 5729 5731 5733 5737 5741 5745 5748 5749 5751 5753 5757 5761 5766 5772 5777 5780 5784 5787 5792 5797 5799 5803 5807 5809 5811 5813 5816 5818 5820 5823 5826 5827 5831 5835 5837 5839 5842 5843 5846 5848 5850 5851 5853 5854 5856 5857 5858 5859
5566 5571 5577 5583 5588 5594 5601 5607 5614 5619 5622 5626 5631 5634 5638 5641 5644 5647 5649 5653 5658 5664 5669 5674 5678 5682 5686 5690 5693 5697 5701 5704 5706 5710 5713 5714 5716 5719 5721 5724 5726 5727 5730 5735 5738 5741 5744 5746 5748 5751 5755 5759 5764 5769 5773 5777 5781 5785 5789 5793 5797 5800 5803 5806 5807 5810 5812 5813 5816 5820 5823 5823 5827 5831 5834 5836 5839 5842 5844 5845 5847 5849 5851 5852 5853 5854 5855 5856
5564 5570 5575 5580 5586 5591 5598 5604 5610 5615 5619 5623 5626 5629 5632 5635 5638 5641 5644 5649 5656 5662 5666 5671 5675 5679 5683 5687 5691 5694 5697 5700 5704 5707 5708 5710 5713 5716 5719 5722 5723 5725 5728 5732 5735 5737 5741 5743 5746 5749 5753 5757 5762 5766 5771 5774 5778 5782 5786 5790 5794 5796 5800 5802 5804 5807 5807 5808 5813 5817 5819 5820 5822 5827 5831 5833 5837 5840 5841 5842 5845 5847 5848 5849 5851 5851 5852 5853
5563 5568 5574 5579 5585 5590 5596 5601 5604 5609 5614 5619 5622 5624 5627 5631 5634 5637 5641 5649 5655 5659 5664 5668 5672 5676 5680 5685 5688 5690 5693 5697 5700 5702 5704 5707 5710 5712 5715 5718 5720 5723 5725 5729 5732 5734 5737 5740 5743 5748 5751 5755 5760 5763 5768 5771 5775 5778 5781 5786 5790 5792 5795 5797 5799 5801 5801 5804 5810 5813 5815 5816 5817 5823 5828 5830 5835 5837 5838 5840 5843 5844 5845 5847 5848 5849 5849 5850
5561 5567 5573 5578 5584 5590 5595 5599 5602 5606 5609 5613 5617 5620 5624 5627 5629 5633 5641 5648 5651 5656 5663 5667 5671 5675 5678 5682 5684 5687 5690 5693 5696 5699 5701 5704 5707 5709 5713 5715 5717 5720 5723 5726 5729 5731 5733 5736 5741 5745 5749 5753 5756 5760 5764 5767 5771 5774 5777 5782 5786 5787 5789 5791 5793 5795 5798 5801 5806 5808 5810 5811 5813 5820 5825 5828 5832 5835 5836 5838 5840 5841 5842 5844 5845 5845 5846 5847
5559 5565 5571 5575 5581 5588 5592 5595 5600 5603 5605 5609 5612 5617 5620 5622 5625 5634 5642 5646 5650 5658 5663 5666 5670 5673 5674 5676 5679 5682 5687 5691 5694 5697 5700 5702 5704 5707 5710 5713 5716 5718 5721 5724 5725 5727 5730 5733 5737 5742 5746 5750 5753 5756 5760 5764 5768 5771 5774 5778 5781 5782 5783 5786 5788 5791 5794 5798 5802 5804 5806 5807 5812 5818 5823 5826 5829 5831 5834 5836 5837 5838 5839 5840 5841 5842 5843 5844
5556 5562 5567 5573 5580 5585 5588 5592 5596 5600 5603 5606 5609 5612 5615 5619 5629 5637 5640 5644 5651 5656 5660 5663 5666 5668 5671 5674 5677 5679 5683 5686 5690 5694 5697 5699 5701 5704 5707 5710 5714 5717 5719 5722 5724 5726 5728 5731 5735 5739 5743 5747 5750 5754 5758 5762 5766 5769 5772 5775 5777 5779 5780 5784 5786 5789 5793 5796 5798 5801 5802 5806 5811 5817 5820 5824 5826 5828 5831 5832 5833 5835 5835 5837 5838 5839 5840 5841
5553 5558 5564 5571 5577 5580 5585 5590 5593 5596 5599 5603 5607 5609 5613 5621 5630 5634 5637 5644 5649 5652 5656 5660 5662 5664 5667 5670 5674 5678 5681 5684 5687 5690 5692 5695 5699 5702 5705 5708 5712 5714 5716 5718 5721 5724 5726 5731 5735 5738 5741 5744 5747 5751 5755 5758 5761 5764 5767 5769 5773 5776 5778 5782 5784 5787 5791 5793 5795 5797 5800 5805 5811 5814 5817 5820 5822 5825 5826 5828 5830 5831 5832 5833 5834 5835 5836 5837
5549 5555 5561 5568 5573 5577 5582 5587 5590 5593 5597 5601 5604 5608 5616 5625 5629 5630 5635 5641 5645 5648 5652 5654 5656 5660 5663 5666 5670 5674 5678 5682 5685 5688 5691 5694 5697 5700 5703 5706 5710 5712 5713 5716 5719 5721 5724 5728 5732 5736 5739 5742 5745 5748 5751 5754 5757 5760 5761 5764 5770 5774 5775 5778 5781 5784 5786 5788 5790 5793 5798 5803 5807 5809 5811 5815 5818 5820 5822 5824 5826 5827 5828 5830 5831 5832 5833 5834
5546 5552 5558 5563 5568 5573 5579 5583 5586 5590 5595 5599 5603 5610 5619 5623 5625 5628 5633 5637 5640 5644 5648 5649 5652 5655 5658 5663 5667 5671 5675 5678 5681 5684 5688 5691 5694 5698 5701 5703 5707 5710 5712 5715 5718 5721 5724 5726 5730 5733 5736 5739 5742 5745 5748 5751 5755 5757 5759 5763 5768 5770 5771 5774 5777 5779 5781 5783 5786 5790 5795 5799 5802 5803 5807 5811 5814 5817 5819 5820 5822 5824 5825 5826 5827 5828 5829 5830
5543 5549 5554 5559 5564 5570 5576 5579 5583 5588 5592 5596 5603 5611 5616 5617 5621 5626 5630 5634 5637 5641 5645 5648 5651 5654 5657 5660 5665 5668 5672 5674 5677 5681 5684 5687 5690 5695 5698 5701 5704 5708 5709 5712 5716 5719 5723 5725 5728 5731 5733 5736 5739 5741 5744 5748 5751 5754 5757 5761 5764 5765 5767 5771 5772 5774 5777 5779 5782 5786 5790 5793 5797 5801 5805 5808 5811 5814 5816 5817 5818 5819 5821 5822 5823 5824 5825 5826
5539 5544 5550 5555 5561 5566 5572 5575 5580 5585 5589 5594 5600 5606 5610 5614 5620 5624 5626 5630 5635 5639 5643 5646 5650 5654 5656 5660 5664 5667 5670 5673 5676 5678 5681 5684 5688 5692 5695 5698 5702 5705 5707 5710 5713 5716 5720 5722 5724 5728 5730 5732 5734 5736 5739 5744 5747 5750 5753 5756 5759 5761 5765 5767 5769 5772 5775 5776 5779 5782 5785 5789 5795 5800 5802 5804 5807 5809 5811 5813 5815 5815 5816 5817 5818 5819 5821 5822
5536 5542 5547 5552 5558 5563 5568 5572 5576 5580 5584 5592 5599 5602 5606 5612 5617 5620 5622 5626 5632 5636 5640 5644 5649 5652 5655 5659 5662 5666 5670 5672 5675 5677 5680 5683 5686 5689 5692 5695 5698 5702 5704 5706 5709 5713 5716 5718 5720 5724 5726 5728 5730 5732 5736 5741 5743 5746 5749 5752 5756 5759 5761 5763 5766 5769 5770 5773 5776 5778 5780 5785 5793 5797 5798 5800 5803 5805 5807 5809 5810 5811 5812 5813 5813 5815 5816 5817
5532 5538 5543 5548 5554 5558 5563 5567 5571 5577 5584 5590 5593 5597 5603 5609 5612 5615 5619 5624 5630 5634 5637 5642 5646 5649 5652 5655 5659 5664 5667 5669 5672 5676 5678 5681 5684 5687 5691 5693 5696 5699 5701 5703 5706 5708 5711 5714 5716 5719 5722 5725 5728 5731 5734 5736 5739 5742 5746 5749 5753 5756 5758 5760 5762 5765 5768 5770 5773 5775 5778 5782 5788 5793 5795 5797 5799 5801 5802 5804 5804 5806 5808 5809 5809 5810 5811 5812
5526 5533 5540 5546 5551 5555 5559 5564 5570 5576 5580 5584 5588 5594 5600 5605 5609 5613 5617 5622 5627 5631 5634 5638 5642 5646 5649 5653 5657 5661 5664 5666 5670 5673 5676 5679 5683 5685 5689 5692 5695 5697 5699 5701 5703 5705 5708 5710 5712 5714 5717 5721 5724 5727 5729 5731 5735 5738 5740 5744 5748 5750 5752 5755 5758 5762 5765 5767 5769 5771 5773 5777 5782 5788 5792 5794 5794 5795 5797 5798 5799 5801 5803 5804 5805 5806 5807 5807
5524 5531 5537 5542 5547 5551 5555 5560 5566 5571 5574 5580 5587 5591 5596 5601 5605 5609 5614 5619 5624 5628 5631 5635 5639 5643 5646 5650 5653 5658 5661 5664 5667 5671 5674 5677 5680 5683 5685 5689 5692 5694 5696 5697 5699 5702 5705 5706 5708 5710 5713 5716 5719 5721 5724 5727 5730 5732 5735 5740 5743 5745 5749 5752 5754 5757 5759 5760 5764 5765 5767 5772 5779 5784 5788 5789 5789 5790 5791 5793 5794 5796 5799 5800 5800 5802 5802 5803
5522 5528 5532 5537 5542 5546 5550 5555 5561 5567 5571 5577 5583 5586 5591 5598 5602 5606 5611 5616 5621 5625 5628 5632 5636 5640 5644 5647 5650 5655 5658 5660 5663 5667 5670 5672 5676 5680 5682 5685 5688 5689 5691 5694 5696 5698 5700 5701 5703 5705 5707 5710 5713 5715 5718 5721 5725 5729 5734 5738 5740 5743 5746 5746 5748 5751 5751 5755 5759 5758 5760 5769 5776 5779 5782 5783 5784 5786 5788 5789 5790 5792 5793 5794 5795 5797 5797 5798
5517 5522 5527 5532 5536 5540 5547 5554 5560 5565 5568 5572 5576 5581 5587 5593 5598 5602 5608 5613 5618 5621 5625 5628 5633 5638 5641 5644 5647 5651 5654 5657 5660 5663 5666 5669 5672 5675 5677 5681 5683 5685 5688 5690 5692 5694 5695 5696 5698 5700 5701 5704 5707 5711 5716 5721 5724 5727 5730 5733 5735 5737 5739 5741 5744 5744 5745 5752 5755 5754 5759 5768 5773 5775 5778 5779 5781 5783 5785 5785 5786 5787 5787 5789 5790 5791 5792 5792
5512 5515 5519 5525 5532 5538 5546 5552 5557 5561 5564 5569 5573 5577 5582 5588 5593 5598 5603 5608 5613 5618 5621 5625 5629 5634 5637 5640 5643 5647 5651 5654 5656 5659 5663 5665 5668 5671 5674 5676 5679 5681 5684 5686 5687 5689 5689 5691 5694 5696 5698 5702 5707 5713 5718 5721 5721 5723 5727 5730 5732 5733 5736 5739 5739 5739 5744 5750 5750 5752 5760 5766 5769 5772 5773 5775 5776 5779 5780 5780 5781 5781 5781 5782 5784 5785 5786 5787
5508 5511 5515 5520 5527 5534 5542 5548 5553 5558 5563 5567 5571 5575 5579 5584 5589 5593 5598 5603 5609 5613 5617 5621 5625 5629 5633 5637 5640 5644 5648 5650 5652 5656 5659 5661 5664 5667 5670 5672 5675 5677 5679 5681 5682 5683 5684 5686 5689 5693 5696 5700 5705 5710 5713 5715 5716 5719 5724 5726 5729 5731 5733 5734 5734 5738 5745 5745 5745 5753 5760 5762 5765 5768 5768 5770 5772 5773 5775 5775 5774 5774 5775 5776 5778 5780 5781 5782
5505 5509 5515 5520 5524 5531 5537 5543 5549 5554 5559 5563 5567 5571 5575 5579 5584 5589 5594 5599 5605 5609 5613 5616 5620 5625 5630 5635 5638 5640 5644 5646 5649 5652 5655 5658 5661 5663 5666 5668 5670 5672 5675 5676 5677 5679 5680 5683 5687 5690 5693 5697 5700 5703 5706 5708 5710 5714 5717 5719 5723 5725 5726 5727 5730 5737 5741 5737 5741 5752 5756 5756 5760 5761 5761 5765 5766 5766 5767 5767 5767 5768 5770 5772 5774 5775 5776 5777
5502 5507 5512 5518 5524 5531 5537 5542 5545 5547 5551 5556 5560 5564 5568 5574 5580 5585 5590 5595 5600 5605 5609 5613 5617 5622 5626 5630 5633 5635 5638 5643 5646 5649 5652 5655 5657 5659 5662 5664 5666 5669 5670 5671 5673 5675 5677 5680 5683 5686 5689 5693 5695 5697 5700 5703 5705 5708 5710 5713 5716 5717 5719 5722 5726 5731 5733 5732 5737 5746 5746 5747 5752 5753 5755 5757 5757 5758 5761 5761 5762 5764 5766 5768 5769 5769 5770 5771
5500 5504 5510 5515 5521 5528 5534 5537 5540 5543 5547 5550 5554 5559 5564 5569 5575 5580 5585 5591 5596 5601 5606 5610 5615 5619 5622 5626 5628 5631 5635 5640 5643 5646 5649 5652 5655 5657 5659 5660 5663 5665 5666 5667 5669 5671 5674 5677 5678 5681 5684 5686 5689 5692 5695 5697 5699 5702 5704 5707 5710 5712 5714 5717 5720 5725 5726 5726 5732 5737 5736 5739 5746 5748 5749 5751 5752 5754 5756 5757 5759 5760 5762 5763 5763 5763 5764 5764
5497 5502 5508 5514 5518 5523 5526 5531 5537 5541 5544 5546 5552 5557 5561 5565 5571 5576 5581 5586 5592 5597 5603 5608 5612 5615 5618 5621 5625 5629 5634 5637 5639 5642 5646 5648 5651 5654 5655 5657 5659 5661 5662 5664 5665 5667 5671 5673 5674 5677 5678 5680 5685 5687 5688 5691 5694 5694 5696 5701 5705 5708 5711 5714 5717 5721 5721 5723 5727 5728 5729 5737 5745 5745 5746 5748 5749 5750 5752 5753 5755 5755 5755 5756 5755 5755 5757 5758
5495 5500 5505 5510 5515 5518 5522 5527 5531 5535 5539 5545 5552 5557 5560 5564 5568 5571 5575 5580 5585 5591 5597 5602 5606 5610 5613 5617 5622 5626 5629 5631 5635 5638 5640 5642 5644 5646 5648 5650 5653 5655 5658 5660 5661 5663 5666 5668 5671 5672 5672 5676 5681 5682 5684 5686 5684 5684 5691 5700 5704 5706 5709 5710 5713 5716 5717 5719 5722 5723 5728 5739 5743 5740 5741 5744 5745 5745 5747 5748 5748 5748 5747 5747 5748 5749 5750 5751